Regional Weather Roundup
Issued by NWS

Home | Current Version | Previous Version | Graphics & Text | Print | Product List | Glossary On
Versions: 1 2 3 4 5 6 7 8 9 10 11 12 13 14 15 16 17 18 19 20 21 22 23 24 25 26 27 28 29 30 31 32 33 34 35 36 37 38 39 40 41 42 43 44 45 46 47 48 49 50
000
ASUS43 KLMK 271502
RWRKY
KENTUCKY REGIONAL WEATHER ROUNDUP
NATIONAL WEATHER SERVICE LOUISVILLE KY
1100 AM EDT FRI MAY 27 2016

NOTE "FAIR" INDICATES FEW OR NO CLOUDS BELOW 12,000 FEET
WITH NO SIGNIFICANT WEATHER AND/OR OBSTRUCTIONS TO VISIBILITY.

KYZ001>023-026-027-061>063-070>075-271600-
WESTERN AND SOUTH CENTRAL KENTUCKY

CITY           SKY/WX    TMP DP  RH WIND       PRES   REMARKS
PADUCAH        CLOUDY    74  67  78 S12G21    29.95S
HENDERSON      MOSUNNY   75  64  69 S9        29.97F
OWENSBORO      PTSUNNY   80  69  69 S12G21    30.01R
HOPKINSVILLE   NOT AVBL
BOWLING GREEN  SUNNY     79  66  64 S14       30.05R
GLASGOW        NOT AVBL
$$

KYZ024-025-028>034-038-045-046-053-271600-
NORTH CENTRAL KENTUCKY

CITY           SKY/WX    TMP DP  RH WIND       PRES   REMARKS
LOUISVILLE/SDF MOSUNNY   79  66  64 S8        30.04R
LOUISVILLE/LOU SUNNY     77  66  68 S7        30.04R
FORT KNOX      MOSUNNY   77  66  69 S6        30.03R
$$

KYZ035>037-039>044-047>052-055>060-089>105-271600-
NORTHEAST KENTUCKY

CITY           SKY/WX    TMP DP  RH WIND       PRES   REMARKS
LEXINGTON      SUNNY     79  66  64 S9        30.07S
COVINGTON      MOSUNNY   77  66  68 SW8       30.05R
FRANKFORT      SUNNY     78  67  68 SW7       30.05S
$$

KYZ054-064>069-076>088-106>120-271600-
SOUTHEAST KENTUCKY

CITY           SKY/WX    TMP DP  RH WIND       PRES   REMARKS
JACKSON        SUNNY     79  65  62 SE3       30.11S
LONDON         SUNNY     79  63  57 S7        30.10F
SOMERSET       NOT AVBL
MIDDLESBORO    SUNNY     78  64  63 S7        30.13S
MONTICELLO     SUNNY     80  66  62 VRB7      30.10F
$$





USA.gov is the U.S. government's official web portal to all federal, state and local government web resources and services.